| time (UTC) | temp F | wind direction | speed MPH | gust MPH | rain 1hr in | rain 24hr in | rain mn in | humidity % | barometer mb |
| 20260510115559 | 54 | 154 | 0.0 | 0.0 | 0.00 | 0.00 | 0.00 | 89 | 1012.8 |
| 20260510115056 | 53 | 160 | 2.0 | 2.0 | 0.00 | 0.00 | 0.00 | 89 | 1012.6 |
| 20260510114552 | 53 | 136 | 0.0 | 1.0 | 0.00 | 0.00 | 0.00 | 90 | 1012.5 |
| 20260510114048 | 53 | 172 | 1.0 | 2.0 | 0.00 | 0.00 | 0.00 | 91 | 1012.4 |
| 20260510113543 | 53 | 203 | 1.0 | 1.0 | 0.00 | 0.00 | 0.00 | 92 | 1012.8 |
| 20260510113041 | 53 | 213 | 0.0 | 0.0 | 0.00 | 0.00 | 0.00 | 91 | 1012.4 |
| 20260510112538 | 54 | 231 | 1.0 | 2.0 | 0.00 | 0.00 | 0.00 | 91 | 1012.0 |
| 20260510112034 | 53 | 139 | 0.0 | 1.0 | 0.00 | 0.00 | 0.00 | 90 | 1012.0 |
| 20260510111531 | 53 | 197 | 1.0 | 1.0 | 0.00 | 0.00 | 0.00 | 91 | 1012.2 |
| 20260510111027 | 53 | 125 | 0.0 | 0.0 | 0.00 | 0.00 | 0.00 | 91 | 1011.6 |
| 20260510110523 | 53 | 105 | 0.0 | 0.0 | 0.00 | 0.00 | 0.00 | 91 | 1011.8 |
| 20260510110020 | 53 | 135 | 0.0 | 0.0 | 0.00 | 0.00 | 0.00 | 91 | 1011.7 |
| 20260510105515 | 53 | 194 | 1.0 | 1.0 | 0.00 | 0.00 | 0.00 | 92 | 1011.4 |
| 20260510105010 | 53 | 194 | 1.0 | 3.0 | 0.00 | 0.00 | 0.00 | 93 | 1011.7 |
| 20260510104507 | 53 | 232 | 1.0 | 2.0 | 0.00 | 0.00 | 0.00 | 93 | 1011.2 |
| 20260510104003 | 53 | 183 | 0.0 | 0.0 | 0.00 | 0.00 | 0.00 | 92 | 1011.2 |
| 20260510103501 | 53 | 172 | 0.0 | 0.0 | 0.00 | 0.00 | 0.00 | 92 | 1011.1 |
| 20260510102956 | 53 | 153 | 0.0 | 0.0 | 0.00 | 0.00 | 0.00 | 92 | 1010.8 |
| 20260510102452 | 53 | 142 | 0.0 | 0.0 | 0.00 | 0.00 | 0.00 | 92 | 1010.7 |
| 20260510101949 | 53 | 113 | 0.0 | 0.0 | 0.00 | 0.00 | 0.00 | 93 | 1010.5 |
| 20260510101446 | 53 | 132 | 0.0 | 0.0 | 0.00 | 0.00 | 0.00 | 93 | 1010.7 |
| 20260510100945 | 52 | 127 | 0.0 | 0.0 | 0.00 | 0.00 | 0.00 | 93 | 1010.7 |
| 20260510100441 | 52 | 117 | 0.0 | 2.0 | 0.00 | 0.00 | 0.00 | 94 | 1010.5 |
| 20260510095937 | 52 | 123 | 0.0 | 2.0 | 0.00 | 0.00 | 0.00 | 95 | 1010.3 |
| 20260510095432 | 51 | 234 | 2.0 | 2.0 | 0.00 | 0.00 | 0.00 | 95 | 1010.5 |
| 20260510094932 | 51 | 143 | 0.0 | 2.0 | 0.00 | 0.00 | 0.00 | 95 | 1010.4 |
| 20260510094427 | 51 | 203 | 1.0 | 1.0 | 0.00 | 0.00 | 0.00 | 95 | 1010.1 |
| 20260510093923 | 51 | 126 | 0.0 | 0.0 | 0.00 | 0.00 | 0.00 | 95 | 1010.0 |
| 20260510093419 | 51 | 216 | 0.0 | 0.0 | 0.00 | 0.00 | 0.00 | 95 | 1010.2 |
| 20260510092915 | 51 | 214 | 1.0 | 2.0 | 0.00 | 0.00 | 0.00 | 95 | 1009.7 |
| 20260510092413 | 50 | 189 | 1.0 | 2.0 | 0.00 | 0.00 | 0.00 | 95 | 1009.4 |
| 20260510091912 | 51 | 265 | 2.0 | 2.0 | 0.00 | 0.00 | 0.00 | 95 | 1009.5 |
| 20260510091410 | 51 | 199 | 1.0 | 2.0 | 0.00 | 0.00 | 0.00 | 95 | 1009.4 |
| 20260510090907 | 51 | 185 | 1.0 | 1.0 | 0.00 | 0.00 | 0.00 | 95 | 1009.2 |
| 20260510090403 | 51 | 123 | 0.0 | 2.0 | 0.00 | 0.00 | 0.00 | 95 | 1009.1 |
| 20260510085859 | 51 | 254 | 1.0 | 2.0 | 0.00 | 0.00 | 0.00 | 95 | 1009.3 |
| 20260510085354 | 51 | 142 | 0.0 | 1.0 | 0.00 | 0.00 | 0.00 | 95 | 1009.1 |
| 20260510084850 | 51 | 191 | 1.0 | 2.0 | 0.00 | 0.00 | 0.00 | 95 | 1009.0 |
| 20260510084347 | 51 | 213 | 1.0 | 2.0 | 0.00 | 0.00 | 0.00 | 95 | 1009.1 |
| 20260510083844 | 51 | 155 | 0.0 | 1.0 | 0.00 | 0.00 | 0.00 | 95 | 1008.9 |
| 20260510083341 | 51 | 183 | 1.0 | 1.0 | 0.00 | 0.00 | 0.00 | 94 | 1008.7 |
| 20260510082836 | 51 | 130 | 0.0 | 2.0 | 0.00 | 0.00 | 0.00 | 94 | 1008.5 |
| 20260510082333 | 51 | 225 | 1.0 | 2.0 | 0.00 | 0.00 | 0.00 | 94 | 1008.5 |
| 20260510081832 | 51 | 229 | 1.0 | 2.0 | 0.00 | 0.00 | 0.00 | 94 | 1008.4 |
| 20260510081329 | 51 | 163 | 1.0 | 2.0 | 0.00 | 0.00 | 0.00 | 94 | 1008.6 |
| 20260510080825 | 52 | 155 | 1.0 | 2.0 | 0.00 | 0.00 | 0.00 | 94 | 1008.3 |
| 20260510080319 | 52 | 157 | 0.0 | 1.0 | 0.00 | 0.00 | 0.00 | 94 | 1008.0 |
| 20260510075817 | 52 | 167 | 1.0 | 2.0 | 0.00 | 0.00 | 0.00 | 93 | 1008.3 |
| 20260510075314 | 52 | 199 | 1.0 | 2.0 | 0.00 | 0.00 | 0.00 | 93 | 1008.3 |
| 20260510074811 | 52 | 200 | 1.0 | 2.0 | 0.00 | 0.00 | 0.00 | 93 | 1008.2 |
| 20260510074308 | 52 | 240 | 1.0 | 2.0 | 0.00 | 0.00 | 0.00 | 93 | 1008.3 |
| 20260510073804 | 53 | 130 | 1.0 | 2.0 | 0.00 | 0.00 | 0.00 | 93 | 1008.3 |
| 20260510073300 | 53 | 221 | 1.0 | 2.0 | 0.00 | 0.00 | 0.00 | 92 | 1008.1 |
| 20260510072756 | 53 | 193 | 0.0 | 1.0 | 0.00 | 0.00 | 0.00 | 92 | 1008.3 |
| 20260510072253 | 53 | 231 | 1.0 | 2.0 | 0.00 | 0.00 | 0.00 | 92 | 1008.5 |
| 20260510071749 | 53 | 213 | 1.0 | 1.0 | 0.00 | 0.00 | 0.00 | 92 | 1008.5 |
| 20260510071246 | 54 | 126 | 0.0 | 2.0 | 0.00 | 0.00 | 0.00 | 91 | 1008.5 |
| 20260510070745 | 54 | 266 | 1.0 | 2.0 | 0.00 | 0.00 | 0.00 | 91 | 1008.4 |
| 20260510070241 | 54 | 127 | 0.0 | 0.0 | 0.00 | 0.00 | 0.00 | 91 | 1008.4 |
| 20260510065741 | 54 | 168 | 0.0 | 0.0 | 0.00 | 0.00 | 0.00 | 91 | 1008.4 |
| 20260510065238 | 54 | 169 | 0.0 | 2.0 | 0.00 | 0.00 | 0.00 | 91 | 1008.5 |
| 20260510064734 | 54 | 212 | 1.0 | 2.0 | 0.00 | 0.00 | 0.00 | 91 | 1008.5 |
| 20260510064232 | 54 | 232 | 2.0 | 2.0 | 0.00 | 0.00 | 0.00 | 91 | 1008.6 |
| 20260510063728 | 54 | 203 | 1.0 | 3.0 | 0.00 | 0.00 | 0.00 | 91 | 1008.8 |
| 20260510063225 | 54 | 121 | 1.0 | 3.0 | 0.00 | 0.00 | 0.00 | 91 | 1008.4 |
| 20260510062721 | 54 | 214 | 2.0 | 2.0 | 0.00 | 0.00 | 0.00 | 90 | 1008.5 |
| 20260510062217 | 54 | 195 | 1.0 | 2.0 | 0.00 | 0.00 | 0.00 | 90 | 1008.3 |
| 20260510061713 | 54 | 234 | 1.0 | 2.0 | 0.00 | 0.00 | 0.00 | 90 | 1008.4 |
| 20260510061210 | 55 | 212 | 1.0 | 2.0 | 0.00 | 0.00 | 0.00 | 89 | 1008.2 |
| 20260510060706 | 55 | 261 | 2.0 | 3.0 | 0.00 | 0.00 | 0.00 | 89 | 1008.3 |
| 20260510060203 | 55 | 247 | 2.0 | 2.0 | 0.00 | 0.00 | 0.00 | 88 | 1008.3 |
| 20260510055659 | 56 | 232 | 1.0 | 2.0 | 0.00 | 0.00 | 0.00 | 88 | 1008.5 |
| 20260510055157 | 56 | 211 | 1.0 | 2.0 | 0.00 | 0.00 | 0.00 | 88 | 1008.5 |
| 20260510054653 | 57 | 207 | 1.0 | 1.0 | 0.00 | 0.00 | 0.00 | 87 | 1008.4 |
| 20260510054149 | 57 | 166 | 0.0 | 2.0 | 0.00 | 0.00 | 0.00 | 86 | 1008.5 |
| 20260510053648 | 58 | 261 | 2.0 | 2.0 | 0.00 | 0.00 | 0.00 | 84 | 1008.6 |
| 20260510053145 | 60 | 150 | 0.0 | 1.0 | 0.00 | 0.00 | 0.00 | 83 | 1008.6 |
| 20260510052641 | 60 | 341 | 2.0 | 3.0 | 0.00 | 0.00 | 0.00 | 80 | 1008.5 |
| 20260510052137 | 59 | 150 | 2.0 | 6.0 | 0.00 | 0.00 | 0.00 | 81 | 1008.7 |
| 20260510051633 | 59 | 103 | 0.0 | 3.0 | 0.00 | 0.00 | 0.00 | 80 | 1008.6 |
| 20260510051129 | 58 | 170 | 1.0 | 2.0 | 0.00 | 0.00 | 0.00 | 85 | 1008.1 |
| 20260510050627 | 58 | 174 | 1.0 | 2.0 | 0.00 | 0.00 | 0.00 | 84 | 1008.0 |
| 20260510050124 | 58 | 117 | 0.0 | 1.0 | 0.00 | 0.00 | 0.00 | 85 | 1008.1 |
| 20260510045621 | 57 | 210 | 1.0 | 3.0 | 0.00 | 0.00 | 0.00 | 85 | 1008.1 |
| 20260510045117 | 57 | 165 | 0.0 | 2.0 | 0.00 | 0.00 | 0.00 | 86 | 1007.9 |
| 20260510044613 | 56 | 209 | 3.0 | 3.0 | 0.00 | 0.00 | 0.00 | 87 | 1007.9 |
| 20260510044111 | 57 | 217 | 1.0 | 2.0 | 0.00 | 0.00 | 0.00 | 86 | 1008.1 |
| 20260510043606 | 56 | 258 | 1.0 | 2.0 | 0.00 | 0.00 | 0.00 | 87 | 1007.8 |
| 20260510043103 | 55 | 121 | 0.0 | 2.0 | 0.00 | 0.00 | 0.00 | 88 | 1007.9 |
| 20260510042601 | 55 | 185 | 0.0 | 2.0 | 0.00 | 0.00 | 0.00 | 88 | 1007.8 |
| 20260510042057 | 55 | 120 | 1.0 | 1.0 | 0.00 | 0.00 | 0.00 | 87 | 1007.6 |
| 20260510041554 | 55 | 78 | 0.0 | 0.0 | 0.00 | 0.00 | 0.00 | 88 | 1007.6 |
| 20260510041051 | 55 | 171 | 0.0 | 3.0 | 0.00 | 0.00 | 0.00 | 88 | 1007.5 |
| 20260510040548 | 55 | 116 | 0.0 | 1.0 | 0.00 | 0.00 | 0.00 | 88 | 1007.6 |
| 20260510040044 | 55 | 216 | 1.0 | 2.0 | 0.00 | 0.00 | 0.00 | 89 | 1007.4 |
| 20260510035540 | 55 | 173 | 1.0 | 2.0 | 0.00 | 0.07 | 0.07 | 88 | 1007.6 |
| 20260510035040 | 55 | 267 | 0.0 | 1.0 | 0.00 | 0.07 | 0.07 | 89 | 1007.4 |
| 20260510034539 | 55 | 210 | 1.0 | 2.0 | 0.00 | 0.07 | 0.07 | 89 | 1007.4 |
| 20260510034035 | 55 | 198 | 1.0 | 2.0 | 0.00 | 0.07 | 0.07 | 89 | 1007.3 |
| 20260510033531 | 55 | 209 | 1.0 | 1.0 | 0.00 | 0.07 | 0.07 | 89 | 1007.4 |
| 20260510033029 | 55 | 195 | 1.0 | 2.0 | 0.00 | 0.07 | 0.07 | 88 | 1007.3 |
| 20260510032524 | 56 | 210 | 1.0 | 2.0 | 0.00 | 0.07 | 0.07 | 88 | 1007.4 |
| 20260510032020 | 56 | 225 | 1.0 | 2.0 | 0.00 | 0.07 | 0.07 | 88 | 1007.3 |
| 20260510031510 | 56 | 205 | 2.0 | 3.0 | 0.00 | 0.07 | 0.07 | 88 | 1007.2 |
| 20260510031006 | 56 | 173 | 1.0 | 2.0 | 0.00 | 0.07 | 0.07 | 88 | 1007.2 |
| 20260510030502 | 57 | 269 | 1.0 | 2.0 | 0.00 | 0.07 | 0.07 | 87 | 1007.4 |
| 20260510025959 | 57 | 225 | 2.0 | 2.0 | 0.00 | 0.07 | 0.07 | 87 | 1007.5 |
| 20260510025456 | 57 | 263 | 2.0 | 2.0 | 0.00 | 0.07 | 0.07 | 86 | 1007.3 |
| 20260510024954 | 57 | 270 | 3.0 | 3.0 | 0.00 | 0.07 | 0.07 | 86 | 1007.4 |
| 20260510024450 | 57 | 260 | 2.0 | 2.0 | 0.00 | 0.07 | 0.07 | 86 | 1006.9 |
| 20260510023946 | 57 | 199 | 1.0 | 2.0 | 0.00 | 0.07 | 0.07 | 86 | 1007.3 |
| 20260510023443 | 57 | 255 | 1.0 | 2.0 | 0.00 | 0.07 | 0.07 | 86 | 1007.4 |
| 20260510022940 | 57 | 233 | 1.0 | 2.0 | 0.00 | 0.07 | 0.07 | 85 | 1007.4 |
| 20260510022439 | 57 | 250 | 1.0 | 2.0 | 0.00 | 0.07 | 0.07 | 86 | 1007.1 |
| 20260510021938 | 58 | 223 | 2.0 | 2.0 | 0.00 | 0.07 | 0.07 | 85 | 1007.1 |
| 20260510021436 | 58 | 246 | 1.0 | 1.0 | 0.00 | 0.07 | 0.07 | 85 | 1007.2 |
| 20260510020932 | 58 | 260 | 2.0 | 2.0 | 0.00 | 0.07 | 0.07 | 84 | 1006.9 |
| 20260510020427 | 59 | 266 | 3.0 | 3.0 | 0.00 | 0.07 | 0.07 | 84 | 1006.7 |
| 20260510015923 | 59 | 266 | 2.0 | 2.0 | 0.00 | 0.07 | 0.07 | 84 | 1006.8 |
| 20260510015419 | 59 | 211 | 0.0 | 2.0 | 0.00 | 0.07 | 0.07 | 84 | 1006.8 |
| 20260510014914 | 60 | 276 | 2.0 | 2.0 | 0.00 | 0.07 | 0.07 | 83 | 1006.8 |
| 20260510014412 | 62 | 176 | 1.0 | 2.0 | 0.00 | 0.07 | 0.07 | 78 | 1006.4 |
| 20260510013908 | 61 | 74 | 1.0 | 2.0 | 0.00 | 0.07 | 0.07 | 75 | 1006.2 |
| 20260510013403 | 63 | 145 | 1.0 | 2.0 | 0.00 | 0.07 | 0.07 | 78 | 1006.1 |
| 20260510012858 | 62 | 187 | 1.0 | 2.0 | 0.00 | 0.07 | 0.07 | 76 | 1006.0 |
| 20260510012354 | 63 | 137 | 0.0 | 1.0 | 0.00 | 0.07 | 0.07 | 72 | 1006.0 |
| 20260510011848 | 63 | 158 | 1.0 | 5.0 | 0.00 | 0.07 | 0.07 | 74 | 1005.7 |
| 20260510011344 | 64 | 172 | 0.0 | 3.0 | 0.00 | 0.07 | 0.07 | 76 | 1005.6 |
| 20260510010840 | 64 | 187 | 2.0 | 2.0 | 0.00 | 0.07 | 0.07 | 72 | 1005.5 |
| 20260510010338 | 64 | 205 | 2.0 | 6.0 | 0.00 | 0.07 | 0.07 | 68 | 1005.2 |
| 20260510005834 | 62 | 224 | 1.0 | 3.0 | 0.00 | 0.07 | 0.07 | 75 | 1005.4 |
| 20260510005331 | 60 | 226 | 2.0 | 2.0 | 0.00 | 0.07 | 0.07 | 77 | 1005.2 |
| 20260510004829 | 60 | 120 | 0.0 | 2.0 | 0.00 | 0.07 | 0.07 | 81 | 1005.6 |
| 20260510004326 | 61 | 132 | 0.0 | 2.0 | 0.00 | 0.07 | 0.07 | 80 | 1005.6 |
| 20260510003823 | 61 | 195 | 0.0 | 2.0 | 0.00 | 0.07 | 0.07 | 77 | 1005.5 |
| 20260510003320 | 62 | 260 | 0.0 | 2.0 | 0.00 | 0.07 | 0.07 | 80 | 1005.5 |
| 20260510002819 | 62 | 283 | 1.0 | 2.0 | 0.00 | 0.07 | 0.07 | 78 | 1005.2 |
| 20260510002316 | 63 | 174 | 0.0 | 0.0 | 0.00 | 0.07 | 0.07 | 77 | 1005.3 |
| 20260510001813 | 64 | 110 | 0.0 | 0.0 | 0.00 | 0.07 | 0.07 | 73 | 1005.2 |
| 20260510001311 | 65 | 115 | 0.0 | 2.0 | 0.00 | 0.07 | 0.07 | 73 | 1005.3 |
| 20260510000806 | 64 | 211 | 1.0 | 2.0 | 0.00 | 0.07 | 0.07 | 70 | 1005.3 |
| 20260510000305 | 66 | 108 | 0.0 | 0.0 | 0.00 | 0.07 | 0.07 | 74 | 1005.3 |
| 20260509235802 | 67 | 123 | 0.0 | 1.0 | 0.00 | 0.07 | 0.07 | 63 | 1005.3 |
| 20260509235258 | 68 | 204 | 1.0 | 3.0 | 0.00 | 0.07 | 0.07 | 63 | 1005.3 |
| 20260509234754 | 69 | 242 | 3.0 | 6.0 | 0.00 | 0.07 | 0.07 | 60 | 1005.3 |
| 20260509234250 | 69 | 216 | 5.0 | 7.0 | 0.00 | 0.07 | 0.07 | 60 | 1005.0 |
| 20260509233749 | 69 | 122 | 2.0 | 3.0 | 0.00 | 0.07 | 0.07 | 60 | 1005.1 |
| 20260509233246 | 69 | 244 | 2.0 | 5.0 | 0.00 | 0.07 | 0.07 | 60 | 1005.2 |
| 20260509232742 | 69 | 289 | 6.0 | 8.0 | 0.00 | 0.07 | 0.07 | 58 | 1005.1 |
| 20260509232239 | 70 | 275 | 2.0 | 3.0 | 0.00 | 0.07 | 0.07 | 59 | 1005.0 |
| 20260509231736 | 70 | 250 | 3.0 | 5.0 | 0.00 | 0.07 | 0.07 | 59 | 1005.0 |
| 20260509231233 | 71 | 302 | 2.0 | 5.0 | 0.00 | 0.07 | 0.07 | 56 | 1004.7 |
| 20260509230730 | 71 | 211 | 2.0 | 3.0 | 0.00 | 0.07 | 0.07 | 56 | 1004.6 |
| 20260509230227 | 71 | 268 | 4.0 | 5.0 | 0.00 | 0.07 | 0.07 | 57 | 1004.5 |
| 20260509225722 | 71 | 217 | 5.0 | 10.0 | 0.00 | 0.07 | 0.07 | 58 | 1004.7 |
| 20260509225218 | 71 | 231 | 3.0 | 11.0 | 0.00 | 0.07 | 0.07 | 59 | 1004.9 |
| 20260509224714 | 72 | 199 | 0.0 | 3.0 | 0.00 | 0.07 | 0.07 | 58 | 1004.6 |
| 20260509224211 | 71 | 229 | 3.0 | 6.0 | 0.00 | 0.07 | 0.07 | 58 | 1004.5 |
| 20260509223708 | 72 | 216 | 2.0 | 3.0 | 0.00 | 0.07 | 0.07 | 59 | 1004.9 |
| 20260509223205 | 71 | 239 | 1.0 | 8.0 | 0.00 | 0.07 | 0.07 | 58 | 1004.7 |
| 20260509222702 | 73 | 289 | 6.0 | 8.0 | 0.00 | 0.07 | 0.07 | 58 | 1004.9 |
| 20260509222158 | 71 | 195 | 4.0 | 5.0 | 0.00 | 0.07 | 0.07 | 57 | 1004.8 |
| 20260509221653 | 72 | 239 | 4.0 | 6.0 | 0.00 | 0.07 | 0.07 | 58 | 1004.7 |
| 20260509221149 | 72 | 290 | 1.0 | 3.0 | 0.00 | 0.07 | 0.07 | 58 | 1004.9 |
| 20260509220646 | 71 | 199 | 3.0 | 15.0 | 0.00 | 0.07 | 0.07 | 59 | 1004.9 |
| 20260509220142 | 72 | 282 | 7.0 | 9.0 | 0.00 | 0.07 | 0.07 | 57 | 1004.9 |
| 20260509215638 | 72 | 248 | 3.0 | 7.0 | 0.00 | 0.07 | 0.07 | 56 | 1005.1 |
| 20260509215134 | 71 | 223 | 7.0 | 13.0 | 0.00 | 0.07 | 0.07 | 58 | 1005.2 |
| 20260509214632 | 72 | 256 | 5.0 | 9.0 | 0.00 | 0.07 | 0.07 | 58 | 1005.0 |
| 20260509214129 | 71 | 64 | 0.0 | 10.0 | 0.00 | 0.07 | 0.07 | 60 | 1005.0 |
| 20260509213625 | 71 | 21 | 3.0 | 7.0 | 0.00 | 0.07 | 0.07 | 60 | 1005.0 |
| 20260509213121 | 71 | 258 | 5.0 | 8.0 | 0.00 | 0.07 | 0.07 | 58 | 1005.1 |
| 20260509212620 | 71 | 134 | 0.0 | 13.0 | 0.00 | 0.07 | 0.07 | 60 | 1004.9 |
| 20260509212116 | 72 | 148 | 0.0 | 7.0 | 0.00 | 0.07 | 0.07 | 58 | 1005.0 |
| 20260509211612 | 71 | 259 | 3.0 | 9.0 | 0.00 | 0.07 | 0.07 | 61 | 1005.1 |
| 20260509211108 | 71 | 188 | 3.0 | 7.0 | 0.00 | 0.07 | 0.07 | 61 | 1005.0 |
| 20260509210605 | 71 | 199 | 2.0 | 6.0 | 0.00 | 0.07 | 0.07 | 61 | 1004.9 |
| 20260509205556 | 71 | 277 | 5.0 | 8.0 | 0.00 | 0.07 | 0.07 | 61 | 1005.2 |
| 20260509205051 | 71 | 280 | 8.0 | 10.0 | 0.00 | 0.07 | 0.07 | 60 | 1005.2 |
| 20260509204548 | 72 | 44 | 2.0 | 8.0 | 0.00 | 0.07 | 0.07 | 60 | 1005.3 |
| 20260509204045 | 71 | 190 | 1.0 | 6.0 | 0.00 | 0.07 | 0.07 | 65 | 1005.3 |
| 20260509203540 | 71 | 335 | 4.0 | 7.0 | 0.00 | 0.07 | 0.07 | 61 | 1005.2 |
| 20260509203039 | 71 | 194 | 8.0 | 13.0 | 0.00 | 0.07 | 0.07 | 59 | 1005.3 |
| 20260509202533 | 71 | 204 | 2.0 | 3.0 | 0.00 | 0.07 | 0.07 | 59 | 1005.4 |
| 20260509202029 | 71 | 197 | 0.0 | 8.0 | 0.00 | 0.07 | 0.07 | 65 | 1005.3 |
| 20260509201524 | 72 | 269 | 2.0 | 6.0 | 0.00 | 0.07 | 0.07 | 62 | 1005.5 |
| 20260509201022 | 72 | 126 | 3.0 | 11.0 | 0.00 | 0.07 | 0.07 | 61 | 1005.6 |
| 20260509200521 | 71 | 171 | 1.0 | 8.0 | 0.00 | 0.07 | 0.07 | 61 | 1005.4 |
| 20260509200018 | 71 | 38 | 1.0 | 6.0 | 0.00 | 0.07 | 0.07 | 66 | 1005.6 |
| 20260509195513 | 70 | 281 | 3.0 | 10.0 | 0.00 | 0.07 | 0.07 | 64 | 1005.9 |
| 20260509195008 | 70 | 262 | 5.0 | 6.0 | 0.00 | 0.07 | 0.07 | 62 | 1005.9 |
| 20260509194504 | 70 | 283 | 2.0 | 7.0 | 0.00 | 0.07 | 0.07 | 63 | 1006.0 |
| 20260509194001 | 71 | 119 | 1.0 | 8.0 | 0.00 | 0.07 | 0.07 | 65 | 1006.2 |
| 20260509193501 | 71 | 207 | 2.0 | 10.0 | 0.00 | 0.07 | 0.07 | 65 | 1006.0 |
| 20260509192957 | 71 | 122 | 1.0 | 5.0 | 0.00 | 0.07 | 0.07 | 66 | 1006.1 |
| 20260509192454 | 69 | 275 | 2.0 | 7.0 | 0.00 | 0.07 | 0.07 | 67 | 1006.2 |
| 20260509191949 | 69 | 324 | 3.0 | 13.0 | 0.00 | 0.07 | 0.07 | 64 | 1006.4 |
| 20260509191444 | 68 | 232 | 4.0 | 8.0 | 0.00 | 0.07 | 0.07 | 66 | 1006.3 |
| 20260509190940 | 69 | 280 | 2.0 | 11.0 | 0.00 | 0.07 | 0.07 | 67 | 1006.5 |
| 20260509190437 | 68 | 79 | 3.0 | 11.0 | 0.00 | 0.07 | 0.07 | 69 | 1006.4 |
| 20260509185935 | 69 | 5 | 4.0 | 8.0 | 0.00 | 0.07 | 0.07 | 66 | 1006.6 |
| 20260509185432 | 69 | 255 | 4.0 | 7.0 | 0.00 | 0.07 | 0.07 | 67 | 1006.6 |
| 20260509184929 | 68 | 287 | 3.0 | 5.0 | 0.00 | 0.07 | 0.07 | 68 | 1006.5 |
| 20260509184427 | 69 | 266 | 3.0 | 9.0 | 0.00 | 0.07 | 0.07 | 67 | 1006.6 |
| 20260509183923 | 67 | 329 | 3.0 | 6.0 | 0.00 | 0.07 | 0.07 | 70 | 1006.6 |
| 20260509183417 | 69 | 303 | 5.0 | 9.0 | 0.00 | 0.07 | 0.07 | 69 | 1006.5 |
| 20260509182914 | 67 | 227 | 3.0 | 7.0 | 0.00 | 0.07 | 0.07 | 71 | 1006.5 |
| 20260509182411 | 67 | 292 | 3.0 | 9.0 | 0.00 | 0.07 | 0.07 | 69 | 1006.6 |
| 20260509181908 | 67 | 238 | 5.0 | 7.0 | 0.00 | 0.07 | 0.07 | 74 | 1006.8 |
| 20260509181406 | 67 | 188 | 3.0 | 8.0 | 0.00 | 0.07 | 0.07 | 74 | 1006.8 |
| 20260509180903 | 66 | 123 | 4.0 | 8.0 | 0.00 | 0.07 | 0.07 | 74 | 1006.7 |
| 20260509180358 | 65 | 203 | 2.0 | 3.0 | 0.00 | 0.07 | 0.07 | 73 | 1006.9 |
| 20260509175855 | 66 | 38 | 2.0 | 9.0 | 0.00 | 0.07 | 0.07 | 71 | 1007.1 |
| 20260509175351 | 67 | 219 | 3.0 | 9.0 | 0.00 | 0.07 | 0.07 | 73 | 1006.9 |
| 20260509174848 | 66 | 79 | 1.0 | 3.0 | 0.00 | 0.07 | 0.07 | 75 | 1006.9 |
| 20260509174344 | 66 | 310 | 6.0 | 10.0 | 0.00 | 0.07 | 0.07 | 74 | 1007.2 |
| 20260509173840 | 66 | 224 | 1.0 | 5.0 | 0.00 | 0.07 | 0.07 | 72 | 1007.2 |
| 20260509173335 | 66 | 98 | 0.0 | 5.0 | 0.00 | 0.07 | 0.07 | 77 | 1007.2 |
| 20260509172831 | 64 | 296 | 3.0 | 5.0 | 0.00 | 0.07 | 0.07 | 77 | 1006.8 |
| 20260509172328 | 64 | 320 | 3.0 | 6.0 | 0.00 | 0.07 | 0.07 | 74 | 1007.2 |
| 20260509171824 | 65 | 296 | 5.0 | 6.0 | 0.00 | 0.07 | 0.07 | 75 | 1007.3 |
| 20260509171320 | 63 | 272 | 1.0 | 6.0 | 0.00 | 0.07 | 0.07 | 77 | 1007.1 |
| 20260509170817 | 65 | 257 | 4.0 | 7.0 | 0.00 | 0.07 | 0.07 | 76 | 1006.9 |
| 20260509170313 | 64 | 125 | 1.0 | 2.0 | 0.00 | 0.07 | 0.07 | 77 | 1007.5 |
| 20260509165812 | 64 | 228 | 0.0 | 5.0 | 0.00 | 0.07 | 0.07 | 76 | 1007.3 |
| 20260509165307 | 64 | 78 | 2.0 | 5.0 | 0.00 | 0.07 | 0.07 | 80 | 1007.2 |
| 20260509164804 | 63 | 149 | 0.0 | 5.0 | 0.00 | 0.07 | 0.07 | 82 | 1007.3 |
| 20260509164300 | 62 | 280 | 5.0 | 7.0 | 0.00 | 0.07 | 0.07 | 80 | 1007.2 |
| 20260509163756 | 61 | 61 | 1.0 | 5.0 | 0.00 | 0.07 | 0.07 | 80 | 1007.1 |
| 20260509163253 | 60 | 243 | 3.0 | 6.0 | 0.00 | 0.07 | 0.07 | 83 | 1007.4 |
| 20260509162752 | 61 | 346 | 6.0 | 10.0 | 0.00 | 0.07 | 0.07 | 81 | 1007.5 |
| 20260509162245 | 61 | 70 | 3.0 | 5.0 | 0.00 | 0.07 | 0.07 | 82 | 1007.4 |
| 20260509161742 | 60 | 9 | 1.0 | 5.0 | 0.00 | 0.07 | 0.07 | 82 | 1007.5 |
| 20260509161238 | 61 | 250 | 3.0 | 3.0 | 0.00 | 0.07 | 0.07 | 84 | 1007.4 |
| 20260509160733 | 61 | 159 | 0.0 | 1.0 | 0.00 | 0.07 | 0.07 | 83 | 1007.3 |
| 20260509160230 | 59 | 134 | 1.0 | 3.0 | 0.00 | 0.07 | 0.07 | 85 | 1007.2 |
| 20260509155724 | 59 | 121 | 0.0 | 5.0 | 0.00 | 0.07 | 0.07 | 85 | 1007.2 |
| 20260509155222 | 59 | 225 | 4.0 | 7.0 | 0.00 | 0.07 | 0.07 | 86 | 1007.2 |
| 20260509154717 | 59 | 216 | 2.0 | 6.0 | 0.00 | 0.07 | 0.07 | 86 | 1007.4 |
| 20260509154215 | 59 | 110 | 0.0 | 1.0 | 0.00 | 0.07 | 0.07 | 86 | 1007.2 |
| 20260509153712 | 59 | 39 | 1.0 | 2.0 | 0.00 | 0.07 | 0.07 | 86 | 1007.1 |
| 20260509153208 | 58 | 319 | 3.0 | 7.0 | 0.00 | 0.07 | 0.07 | 86 | 1006.9 |
| 20260509152704 | 59 | 30 | 1.0 | 5.0 | 0.00 | 0.07 | 0.07 | 86 | 1006.8 |
| 20260509152201 | 58 | 80 | 1.0 | 6.0 | 0.00 | 0.07 | 0.07 | 87 | 1006.9 |
| 20260509151658 | 58 | 230 | 2.0 | 3.0 | 0.00 | 0.07 | 0.07 | 87 | 1006.9 |
| 20260509151155 | 58 | 262 | 4.0 | 7.0 | 0.00 | 0.07 | 0.07 | 87 | 1007.1 |
| 20260509150653 | 58 | 241 | 2.0 | 3.0 | 0.00 | 0.07 | 0.07 | 87 | 1007.3 |
| 20260509150151 | 59 | 215 | 3.0 | 3.0 | 0.00 | 0.07 | 0.07 | 87 | 1007.1 |
| 20260509145647 | 58 | 128 | 1.0 | 6.0 | 0.00 | 0.07 | 0.07 | 87 | 1006.9 |
| 20260509145142 | 58 | 225 | 3.0 | 3.0 | 0.00 | 0.07 | 0.07 | 87 | 1007.1 |
| 20260509144639 | 58 | 117 | 2.0 | 8.0 | 0.00 | 0.07 | 0.07 | 88 | 1007.1 |
| 20260509144136 | 58 | 149 | 1.0 | 3.0 | 0.00 | 0.07 | 0.07 | 89 | 1006.9 |
| 20260509143633 | 59 | 190 | 1.0 | 2.0 | 0.00 | 0.07 | 0.07 | 88 | 1007.1 |
| 20260509143131 | 57 | 196 | 2.0 | 2.0 | 0.00 | 0.07 | 0.07 | 90 | 1007.1 |
| 20260509142626 | 56 | 186 | 1.0 | 5.0 | 0.00 | 0.07 | 0.07 | 90 | 1006.9 |
| 20260509142123 | 56 | 17 | 1.0 | 3.0 | 0.00 | 0.07 | 0.07 | 91 | 1007.1 |
| 20260509141619 | 56 | 222 | 2.0 | 3.0 | 0.00 | 0.07 | 0.07 | 92 | 1006.9 |
| 20260509141115 | 55 | 153 | 1.0 | 1.0 | 0.00 | 0.07 | 0.07 | 92 | 1007.1 |
| 20260509140612 | 56 | 275 | 3.0 | 5.0 | 0.00 | 0.07 | 0.07 | 91 | 1007.1 |
| 20260509140110 | 57 | 218 | 4.0 | 5.0 | 0.00 | 0.07 | 0.07 | 91 | 1007.1 |
| 20260509135607 | 57 | 80 | 0.0 | 1.0 | 0.00 | 0.07 | 0.07 | 93 | 1007.1 |
| 20260509135105 | 56 | 167 | 0.0 | 1.0 | 0.00 | 0.07 | 0.07 | 93 | 1007.1 |
| 20260509134601 | 55 | 220 | 1.0 | 2.0 | 0.00 | 0.07 | 0.07 | 94 | 1007.3 |
| 20260509134059 | 54 | 192 | 1.0 | 2.0 | 0.00 | 0.07 | 0.07 | 94 | 1007.3 |
| 20260509133556 | 54 | 129 | 0.0 | 1.0 | 0.00 | 0.07 | 0.07 | 94 | 1007.1 |
| 20260509133053 | 54 | 106 | 0.0 | 0.0 | 0.00 | 0.07 | 0.07 | 94 | 1007.4 |
| 20260509132552 | 54 | 133 | 0.0 | 0.0 | 0.07 | 0.07 | 0.07 | 94 | 1007.1 |
| 20260509132050 | 53 | 123 | 0.0 | 0.0 | 0.07 | 0.07 | 0.07 | 94 | 1007.4 |
| 20260509131545 | 53 | 147 | 0.0 | 0.0 | 0.00 | 0.06 | 0.06 | 94 | 1007.3 |
| 20260509131042 | 53 | 136 | 0.0 | 0.0 | 0.00 | 0.06 | 0.06 | 94 | 1007.4 |
| 20260509130538 | 53 | 119 | 0.0 | 0.0 | 0.00 | 0.06 | 0.06 | 94 | 1007.3 |
| 20260509130035 | 53 | 133 | 0.0 | 0.0 | 0.00 | 0.06 | 0.06 | 94 | 1007.2 |
| 20260509125531 | 53 | 113 | 0.0 | 0.0 | 0.00 | 0.06 | 0.06 | 94 | 1007.3 |
| 20260509125028 | 53 | 124 | 0.0 | 0.0 | 0.00 | 0.06 | 0.06 | 94 | 1007.2 |
| 20260509124525 | 53 | 127 | 0.0 | 1.0 | 0.00 | 0.06 | 0.06 | 94 | 1006.9 |
| 20260509124022 | 53 | 31 | 1.0 | 2.0 | 0.00 | 0.06 | 0.06 | 94 | 1006.8 |
| 20260509123520 | 53 | 93 | 0.0 | 0.0 | 0.00 | 0.06 | 0.06 | 94 | 1007.1 |
| 20260509123016 | 53 | 158 | 0.0 | 1.0 | 0.00 | 0.06 | 0.06 | 94 | 1007.2 |
| 20260509122513 | 53 | 258 | 1.0 | 1.0 | 0.00 | 0.06 | 0.06 | 94 | 1007.2 |
| 20260509122009 | 53 | 77 | 0.0 | 3.0 | 0.00 | 0.06 | 0.06 | 94 | 1007.1 |
| 20260509121506 | 53 | 102 | 1.0 | 2.0 | 0.00 | 0.06 | 0.06 | 94 | 1007.2 |
| 20260509121004 | 53 | 116 | 0.0 | 3.0 | 0.00 | 0.06 | 0.06 | 94 | 1007.3 |
| 20260509120502 | 52 | 135 | 0.0 | 1.0 | 0.00 | 0.06 | 0.06 | 94 | 1007.6 |
| 20260509120000 | 53 | 122 | 0.0 | 1.0 | 0.00 | 0.06 | 0.06 | 94 | 1007.7 |